This is the latest recevied weather packets stored in our database for station/object N1TKS. If no packets are shown the sender has not sent any weather packets the latest 10 day(s).
| Time | Temp. | Humidity | Pressure | Rain* | Wind** | Luminosity | Snow |
|---|---|---|---|---|---|---|---|
| 1777429615 | 11.67° C | 69% | 1018.9 hPa | 0 mm | - | - | - |
| 1777429318 | 11.67° C | 71% | 1018.7 hPa | 0 mm | - | - | - |
| 1777429017 | 11.67° C | 69% | 1018.9 hPa | 0 mm | - | - | - |
| 1777428827 | 11.67° C | 69% | 1018.9 hPa | 0 mm | - | - | - |
| 1777428717 | 11.67° C | 69% | 1018.9 hPa | 0 mm | - | - | - |
| 1777428415 | 11.67° C | 69% | 1018.9 hPa | 0 mm | - | - | - |
| 1777427862 | 11.67° C | 70% | 1018.6 hPa | 0 mm | - | - | - |
| 1777427814 | 11.67° C | 70% | 1018.6 hPa | 0 mm | - | - | - |
| 1777427650 | 12.22° C | 71% | 1018.7 hPa | 0 mm | - | - | - |
| 1777427516 | 12.22° C | 71% | 1018.7 hPa | 0 mm | - | - | - |
| 1777427217 | 12.22° C | 72% | 1018.6 hPa | 0 mm | - | - | - |
| 1777426913 | 12.22° C | 72% | 1018.8 hPa | 0 mm | - | - | - |
| 1777426818 | 12.78° C | 71% | 1018.9 hPa | 0 mm | - | - | - |
| 1777426651 | 12.78° C | 71% | 1018.9 hPa | 0 mm | - | - | - |
| 1777426614 | 12.78° C | 71% | 1018.9 hPa | 0 mm | - | - | - |
| 1777426317 | 12.78° C | 70% | 1019.1 hPa | 0 mm | - | - | - |
| 1777426015 | 12.78° C | 69% | 1018.9 hPa | 0 mm | - | - | - |
| 1777425715 | 12.78° C | 67% | 1018.9 hPa | 0 mm | - | - | - |
| 1777424977 | 13.33° C | 68% | 1018.8 hPa | 0 mm | - | - | - |
| 1777424814 | 13.33° C | 68% | 1018.8 hPa | 0 mm | - | - | - |
| 1777424669 | 13.89° C | 65% | 1018.6 hPa | 0 mm | - | - | - |
| 1777424391 | 13.33° C | 67% | 1018.8 hPa | 0 mm | - | - | - |
| 1777424216 | 13.33° C | 67% | 1018.8 hPa | 0 mm | - | - | - |
| 1777423915 | 13.33° C | 67% | 1018.7 hPa | 0 mm | - | - | - |
| 1777423615 | 13.33° C | 66% | 1018.7 hPa | 0 mm | - | - | - |
* Rain latest hour (hover to see other rain measurements)
** Current wind speed in m/s (hover to see current wind gust speed)